This is the latest recevied weather packets stored in our database for station/object KD7AWQ. If no packets are shown the sender has not sent any weather packets the latest 10 day(s).
| Time | Temp. | Humidity | Pressure | Rain* | Wind** | Luminosity | Snow |
|---|---|---|---|---|---|---|---|
| 1787952548 | 36.11° C | 20% | 1187.1 hPa | 0 mm | - | 908 W/m² | - |
| 1787952247 | 36.11° C | 20% | 1187.4 hPa | 0 mm | - | 709 W/m² | - |
| 1787951943 | 35.56° C | 20% | 1187.7 hPa | 0 mm | - | 469 W/m² | - |
| 1787951639 | 35.56° C | 21% | 1187.7 hPa | 0 mm | - | 365 W/m² | - |
| 1787951335 | 35° C | 21% | 1187.8 hPa | 0 mm | - | 299 W/m² | - |
| 1787951030 | 35° C | 22% | 1188 hPa | 0 mm | - | 280 W/m² | - |
| 1787950725 | 35° C | 22% | 1188 hPa | 0 mm | - | 244 W/m² | - |
| 1787950421 | 35.56° C | 21% | 1188 hPa | 0 mm | - | 317 W/m² | - |
| 1787950118 | 35° C | 22% | 1188 hPa | 0 mm | - | 318 W/m² | - |
| 1787949813 | 35.56° C | 23% | 1188 hPa | 0 mm | - | 218 W/m² | - |
| 1787949513 | 35.56° C | 22% | 1188.4 hPa | 0 mm | - | 207 W/m² | - |
| 1787949208 | 35° C | 23% | 1188.4 hPa | 0 mm | - | 180 W/m² | - |
| 1787948903 | 35° C | 23% | 1188.3 hPa | 0 mm | - | 176 W/m² | - |
| 1787948599 | 35° C | 23% | 1188.6 hPa | 0 mm | - | 173 W/m² | - |
| 1787948295 | 35.56° C | 23% | 1188.7 hPa | 0 mm | - | 357 W/m² | - |
| 1787947994 | 36.11° C | 22% | 1188.8 hPa | 0 mm | - | 237 W/m² | - |
| 1787947693 | 36.67° C | 21% | 1188.7 hPa | 0 mm | - | 1029 W/m² | - |
| 1787947393 | 36.11° C | 22% | 1188.8 hPa | 0 mm | - | 1013 W/m² | - |
| 1787947092 | 36.67° C | 22% | 1189 hPa | 0 mm | - | 1002 W/m² | - |
| 1787946792 | 36.67° C | 22% | 1188.9 hPa | 0 mm | - | 1003 W/m² | - |
| 1787946490 | 37.22° C | 21% | 1189.3 hPa | 0 mm | - | 1006 W/m² | - |
| 1787946186 | 36.11° C | 22% | 1189.2 hPa | 0 mm | - | 1000 W/m² | - |
| 1787945885 | 36.67° C | 22% | 1189.2 hPa | 0 mm | - | 998 W/m² | - |
| 1787945581 | 37.22° C | 20% | 1189.1 hPa | 0 mm | - | 996 W/m² | - |
| 1787945280 | 36.67° C | 21% | 1189.6 hPa | 0 mm | - | 991 W/m² | - |
* Rain latest hour (hover to see other rain measurements)
** Current wind speed in m/s (hover to see current wind gust speed)